Flag for Norway Weather past 2 weeks in Stavanger, Norway

Now
61 °F

Scattered clouds.


Feels Like: 61 °F
Forecast: 51 / 66 °F
Wind: 14 mph from Southwest

Location: Stavanger / Sola

Current Time: Aug 2, 2015 at 1:31:07 PM

Latest Report: Aug 2, 2015 at 12:50 PM


Visibility: N/A

Pressure: 30.04 "Hg

Humidity: 72%

Dew point: 52 °F

Location of StavangerLocation

Historic Weather in Stavanger — Graph

°F

Stavanger temperature yesterday

Maximum temperature yesterday: 59 °F (at 10:50 AM)
Minimum temperature yesterday: 48 °F (at 1:50 AM)
Average temperature yesterday: 55 °F

Past Weeks' High & Low Weather Summary

 TemperatureHumidityPressure
High66 °F (Jul 29, 3:50 PM)100% (Jul 19, 1:20 AM)30.04 "Hg (Jul 19, 1:20 AM)
Low48 °F (Jul 27, 5:50 AM)51% (Jul 23, 12:50 PM)29.39 "Hg (Jul 29, 9:20 AM)
Average57 °F82%29.71 "Hg
* Reported Jul 18 12:20 PM — Aug 2 12:20 PM, Stavanger, Weather by CustomWeather, © 2015

Note: Actual official high and low records may vary slightly from our data, if they occured in-between our weather recording intervals... More about our weather records

Advertising

Stavanger weather history for previous 24 hours

 ConditionsComfort  
Time TempWeatherWind HumidityBarometerVisibility
12:20 PM
Sun, Aug 2
59 °FScattered clouds.12 mph77%30.04 "HgN/A
11:50 AM61 °FScattered clouds.12 mph72%30.01 "HgN/A
11:20 AM59 °FScattered clouds.12 mph77%30.01 "HgN/A
10:50 AM59 °FScattered clouds.12 mph82%30.01 "HgN/A
10:20 AM59 °FScattered clouds.10 mph77%29.98 "HgN/A
9:50 AM59 °FScattered clouds.12 mph77%29.98 "HgN/A
9:20 AM57 °FScattered clouds.12 mph82%29.98 "HgN/A
8:50 AM57 °FScattered clouds.10 mph82%29.95 "HgN/A
8:20 AM57 °FBroken clouds.12 mph88%29.95 "HgN/A
7:50 AM54 °FBroken clouds.6 mph94%29.95 "HgN/A
7:20 AM54 °FBroken clouds.6 mph94%29.92 "HgN/A
6:50 AM52 °FPartly sunny.7 mph94%29.92 "HgN/A
6:20 AM52 °FPartly cloudy.8 mph88%29.92 "HgN/A
5:50 AM50 °FPartly cloudy.6 mph94%29.92 "HgN/A
4:50 AM50 °FPassing clouds.8 mph94%29.92 "HgN/A
3:50 AM50 °FPartly cloudy.6 mph88%29.92 "HgN/A
2:50 AM52 °FRain. Partly cloudy.3 mph88%29.92 "HgN/A
2:20 AM54 °FThunderstorms. Partly cloudy.8 mph94%29.92 "HgN/A
1:50 AM54 °FThundershowers. Partly cloudy.5 mph88%29.92 "HgN/A
1:20 AM54 °FThundershowers. Partly cloudy.7 mph94%29.92 "HgN/A
12:50 AM54 °FPartly cloudy.7 mph94%29.89 "HgN/A
11:50 PM
Sat, Aug 1
54 °FPassing clouds.7 mph88%29.89 "HgN/A
11:20 PM54 °FPassing clouds.12 mph88%29.89 "HgN/A
10:50 PM54 °FScattered showers. Partly sunny.9 mph88%29.89 "HgN/A
10:20 PM52 °FScattered showers. Broken clouds.7 mph94%29.89 "HgN/A
9:50 PM52 °FScattered showers. Broken clouds.12 mph94%29.89 "HgN/A
9:20 PM54 °FRain showers. Broken clouds.13 mph82%29.89 "Hg6 mi
8:50 PM57 °FThunderstorms. Broken clouds.14 mph88%29.89 "Hg5 mi
8:20 PM59 °FRain showers. Broken clouds.12 mph88%29.89 "HgN/A
7:50 PM59 °FScattered showers. Broken clouds.13 mph88%29.89 "HgN/A
7:20 PM59 °FScattered showers. Broken clouds.13 mph88%29.89 "HgN/A
6:50 PM59 °FScattered showers. Broken clouds.14 mph94%29.89 "Hg6 mi
6:20 PM57 °FRain showers. Cloudy.9 mph94%29.89 "HgN/A
5:50 PM55 °FRain showers. Broken clouds.12 mph88%29.89 "HgN/A
5:20 PM55 °FBroken clouds.10 mph88%29.89 "HgN/A
4:50 PM54 °FScattered showers. Broken clouds.5 mph94%29.92 "HgN/A
4:20 PM54 °FLight rain. Partly sunny.5 mph88%29.92 "HgN/A
3:50 PM54 °FThunderstorms. Broken clouds.10 mph94%29.92 "HgN/A
3:20 PM54 °FThunderstorms. Broken clouds.12 mph94%29.92 "Hg4 mi
2:50 PM54 °FThunderstorms. Broken clouds.12 mph94%29.92 "Hg4 mi
2:20 PM55 °FThunderstorms. Partly sunny.7 mph88%29.92 "Hg6 mi
1:50 PM57 °FLight rain. Broken clouds.9 mph82%29.92 "HgN/A
1:20 PM57 °FLight rain. Broken clouds.9 mph77%29.92 "HgN/A
Weather by CustomWeather, © 2015

See weather overviewHow to use our weather pages